This is the latest recevied weather packets stored in our database for station/object KN6CRX. If no packets are shown the sender has not sent any weather packets the latest 10 day(s).
| Time | Temp. | Humidity | Pressure | Rain* | Wind** | Luminosity | Snow |
|---|---|---|---|---|---|---|---|
| 1787884814 | 25° C | 38% | 1019.1 hPa | 0 mm | - | 0 W/m² | - |
| 1787884508 | 25° C | 37% | 1018.9 hPa | 0 mm | - | 0 W/m² | - |
| 1787884204 | 25.56° C | 39% | 1019 hPa | 0 mm | - | 0 W/m² | - |
| 1787883899 | 25.56° C | 36% | 1019.1 hPa | 0 mm | - | 0 W/m² | - |
| 1787883594 | 26.11° C | 35% | 1019.1 hPa | 0 mm | - | 1 W/m² | - |
| 1787883290 | 26.11° C | 35% | 1019.1 hPa | 0 mm | - | 1 W/m² | - |
| 1787882988 | 26.67° C | 35% | 1019.2 hPa | 0 mm | - | 2 W/m² | - |
| 1787882685 | 26.67° C | 35% | 1019.4 hPa | 0 mm | - | 3 W/m² | - |
| 1787882382 | 27.22° C | 34% | 1019.5 hPa | 0 mm | - | 4 W/m² | - |
| 1787882082 | 27.22° C | 34% | 1019.7 hPa | 0 mm | - | 3 W/m² | - |
| 1787881777 | 27.22° C | 34% | 1019.4 hPa | 0 mm | - | 3 W/m² | - |
| 1787881471 | 28.33° C | 33% | 1019.8 hPa | 0 mm | - | 4 W/m² | - |
| 1787881168 | 28.89° C | 29% | 1019.5 hPa | 0 mm | - | 7 W/m² | - |
| 1787880863 | 28.89° C | 28% | 1019.2 hPa | 0 mm | - | 12 W/m² | - |
| 1787880563 | 28.89° C | 28% | 1019.2 hPa | 0 mm | - | 15 W/m² | - |
| 1787880261 | 28.89° C | 28% | 1019 hPa | 0 mm | - | 18 W/m² | - |
| 1787879961 | 28.89° C | 28% | 1019.1 hPa | 0 mm | - | 19 W/m² | - |
| 1787879657 | 29.44° C | 28% | 1019.1 hPa | 0 mm | - | 23 W/m² | - |
| 1787879353 | 29.44° C | 27% | 1019 hPa | 0 mm | - | 29 W/m² | - |
| 1787879048 | 29.44° C | 27% | 1018.9 hPa | 0 mm | - | 35 W/m² | - |
| 1787878743 | 29.44° C | 28% | 1018.9 hPa | 0 mm | - | 42 W/m² | - |
| 1787878443 | 29.44° C | 29% | 1018.9 hPa | 0 mm | - | 52 W/m² | - |
| 1787878139 | 29.44° C | 29% | 1018.7 hPa | 0 mm | - | 53 W/m² | - |
| 1787877834 | 30° C | 28% | 1018.7 hPa | 0 mm | - | 48 W/m² | - |
| 1787877529 | 30° C | 29% | 1019 hPa | 0 mm | - | 59 W/m² | - |
* Rain latest hour (hover to see other rain measurements)
** Current wind speed in m/s (hover to see current wind gust speed)